Simultaneous Nadir Overpasses (SNOs) Predictions

Prediction of SNOs between GOES-15 and METOP-A Satellite Orbit:

Table of predicted SNOs for the next 14.0 days since TLE Epoch: 12/30/2016
Index Date Time (GOES-15) GOES-15 Lat,Lon METOP-A Lat,Lon Distance(km) Time Diff (sec)
1 12/30/2016 06:43:09 0.06,-134.79 -0.64,-137.97 363.35 80
2 12/31/2016 06:19:49 0.07,-134.74 0.45,-132.98 200.89 80
3 01/01/2017 18:41:21 -0.05,-134.67 0.58,-137.54 326.37 80
4 01/02/2017 18:18:02 -0.06,-134.63 -0.50,-132.54 237.73 80
5 01/04/2017 06:39:42 0.05,-134.56 -0.53,-137.13 292.87 80
6 01/05/2017 06:16:23 0.05,-134.51 0.56,-132.13 270.63 80
7 01/06/2017 18:37:55 -0.04,-134.43 0.47,-136.69 258.10 80
8 01/07/2017 18:14:36 -0.05,-134.38 -0.62,-131.69 305.12 80
9 01/09/2017 06:36:16
